Вернуться в каталог

NOAA 11 DEB

АктивенSSO
NORAD 37241·DEBRIS·🇺🇸 United States

Запущен Sep 24, 1988 с Vandenberg Space Force Base

Loading…

Ближайшие Пролёты (ближайшие 24 часа)

TLE

СвежийSource: Space-Track

Эпоха: Sep 14, 2026, 22:07 UTC

1 37241U 88089D   26257.92196922  .00000526  00000-0  22747-3 0  9990
2 37241  98.9695  77.0853 0020238 307.2183  52.7150 14.28651278965277

Отслеживайте NOAA 11 DEB в реальном времени с AllMySat

Download on the App Store